Year,Month,Day,Hour,Minute,Value (Times are PST for temperature in C)
2009,04,20,00,00,8.20
2009,04,20,00,01,8.20
2009,04,20,00,02,8.20
2009,04,20,00,03,8.20
2009,04,20,00,04,8.20
2009,04,20,00,05,8.20
2009,04,20,00,06,8.20
2009,04,20,00,07,8.20
2009,04,20,00,08,8.20
2009,04,20,00,09,8.20
2009,04,20,00,10,8.20
2009,04,20,00,11,8.20
2009,04,20,00,12,8.20
2009,04,20,00,13,8.20
2009,04,20,00,14,8.20
2009,04,20,00,15,8.20
2009,04,20,00,16,8.20
2009,04,20,00,17,8.20
2009,04,20,00,18,8.20
2009,04,20,00,19,8.20
2009,04,20,00,20,8.20
2009,04,20,00,21,8.20
2009,04,20,00,22,8.20
2009,04,20,00,23,8.20
2009,04,20,00,24,8.20
2009,04,20,00,25,8.20
2009,04,20,00,26,8.20
2009,04,20,00,27,8.20
2009,04,20,00,28,8.20
2009,04,20,00,29,8.10
2009,04,20,00,30,8.10
2009,04,20,00,31,8.10
2009,04,20,00,32,8.10
2009,04,20,00,33,8.00
2009,04,20,00,34,8.00
2009,04,20,00,35,8.00
2009,04,20,00,36,8.00
2009,04,20,00,37,8.00
2009,04,20,00,38,7.90
2009,04,20,00,39,7.90
2009,04,20,00,40,7.90
2009,04,20,00,41,7.90
2009,04,20,00,42,7.90
2009,04,20,00,43,7.80
2009,04,20,00,44,7.80
2009,04,20,00,45,7.80
2009,04,20,00,46,7.80
2009,04,20,00,47,7.80
2009,04,20,00,48,7.80
2009,04,20,00,49,7.80
2009,04,20,00,50,7.80
2009,04,20,00,51,7.80
2009,04,20,00,52,7.70
2009,04,20,00,53,7.70
2009,04,20,00,54,7.70
2009,04,20,00,55,7.70
2009,04,20,00,56,7.70
2009,04,20,00,57,7.70
2009,04,20,00,58,7.70
2009,04,20,00,59,7.70
2009,04,20,01,00,7.70
2009,04,20,01,01,7.70
2009,04,20,01,02,7.70
2009,04,20,01,03,7.80
2009,04,20,01,04,7.80
2009,04,20,01,05,7.80
2009,04,20,01,06,7.80
2009,04,20,01,07,7.70
2009,04,20,01,08,7.70
2009,04,20,01,09,7.70
2009,04,20,01,10,7.70
2009,04,20,01,11,7.70
2009,04,20,01,12,7.70
2009,04,20,01,13,7.70
2009,04,20,01,14,7.70
2009,04,20,01,15,7.70
2009,04,20,01,16,7.70
2009,04,20,01,17,7.80
2009,04,20,01,18,7.80
2009,04,20,01,19,7.80
2009,04,20,01,20,7.80
2009,04,20,01,21,7.80
2009,04,20,01,22,7.80
2009,04,20,01,23,7.80
2009,04,20,01,24,7.80
2009,04,20,01,25,7.80
2009,04,20,01,26,7.90
2009,04,20,01,27,7.90
2009,04,20,01,28,7.90
2009,04,20,01,29,7.90
2009,04,20,01,30,7.90
2009,04,20,01,31,7.90
2009,04,20,01,32,7.90
2009,04,20,01,33,7.90
2009,04,20,01,34,7.90
2009,04,20,01,35,7.90
2009,04,20,01,36,7.90
2009,04,20,01,37,8.00
2009,04,20,01,38,8.00
2009,04,20,01,39,8.00
2009,04,20,01,40,8.00
2009,04,20,01,41,8.00
2009,04,20,01,42,8.00
2009,04,20,01,43,8.00
2009,04,20,01,44,8.00
2009,04,20,01,45,8.00
2009,04,20,01,46,8.00
2009,04,20,01,47,8.10
2009,04,20,01,48,8.10
2009,04,20,01,49,8.10
2009,04,20,01,50,8.10
2009,04,20,01,51,8.10
2009,04,20,01,52,8.10
2009,04,20,01,53,8.10
2009,04,20,01,54,8.10
2009,04,20,01,55,8.10
2009,04,20,01,56,8.10
2009,04,20,01,57,8.10
2009,04,20,01,58,8.10
2009,04,20,01,59,8.10
2009,04,20,02,00,8.10
2009,04,20,02,01,8.10
2009,04,20,02,02,8.10
2009,04,20,02,03,8.10
2009,04,20,02,04,8.10
2009,04,20,02,05,8.10
2009,04,20,02,06,8.10
2009,04,20,02,07,8.10
2009,04,20,02,08,8.10
2009,04,20,02,09,8.10
2009,04,20,02,10,8.10
2009,04,20,02,11,8.20
2009,04,20,02,12,8.20
2009,04,20,02,13,8.20
2009,04,20,02,14,8.20
2009,04,20,02,15,8.20
2009,04,20,02,16,8.20
2009,04,20,02,17,8.20
2009,04,20,02,18,8.20
2009,04,20,02,19,8.20
2009,04,20,02,20,8.20
2009,04,20,02,21,8.20
2009,04,20,02,22,8.20
2009,04,20,02,23,8.20
2009,04,20,02,24,8.20
2009,04,20,02,25,8.20
2009,04,20,02,26,8.20
2009,04,20,02,27,8.20
2009,04,20,02,28,8.20
2009,04,20,02,29,8.20
2009,04,20,02,30,8.20
2009,04,20,02,31,8.20
2009,04,20,02,32,8.10
2009,04,20,02,33,8.10
2009,04,20,02,34,8.10
2009,04,20,02,35,8.10
2009,04,20,02,36,8.10
2009,04,20,02,37,8.10
2009,04,20,02,38,8.10
2009,04,20,02,39,8.00
2009,04,20,02,40,8.00
2009,04,20,02,41,8.00
2009,04,20,02,42,8.00
2009,04,20,02,43,8.00
2009,04,20,02,44,7.90
2009,04,20,02,45,7.90
2009,04,20,02,46,7.90
2009,04,20,02,47,7.90
2009,04,20,02,48,7.90
2009,04,20,02,49,7.80
2009,04,20,02,50,7.80
2009,04,20,02,51,7.80
2009,04,20,02,52,7.80
2009,04,20,02,53,7.80
2009,04,20,02,54,7.80
2009,04,20,02,55,7.70
2009,04,20,02,56,7.70
2009,04,20,02,57,7.70
2009,04,20,02,58,7.60
2009,04,20,02,59,7.60
2009,04,20,03,00,7.60
2009,04,20,03,01,7.60
2009,04,20,03,02,7.60
2009,04,20,03,03,7.50
2009,04,20,03,04,7.50
2009,04,20,03,05,7.50
2009,04,20,03,06,7.50
2009,04,20,03,07,7.50
2009,04,20,03,08,7.50
2009,04,20,03,09,7.50
2009,04,20,03,10,7.50
2009,04,20,03,11,7.50
2009,04,20,03,12,7.50
2009,04,20,03,13,7.40
2009,04,20,03,14,7.40
2009,04,20,03,15,7.40
2009,04,20,03,16,7.40
2009,04,20,03,17,7.40
2009,04,20,03,18,7.40
2009,04,20,03,19,7.40
2009,04,20,03,20,7.40
2009,04,20,03,21,7.30
2009,04,20,03,22,7.30
2009,04,20,03,23,7.30
2009,04,20,03,24,7.30
2009,04,20,03,25,7.30
2009,04,20,03,26,7.30
2009,04,20,03,27,7.30
2009,04,20,03,28,7.30
2009,04,20,03,29,7.30
2009,04,20,03,30,7.30
2009,04,20,03,31,7.30
2009,04,20,03,32,7.30
2009,04,20,03,33,7.30
2009,04,20,03,34,7.20
2009,04,20,03,35,7.30
2009,04,20,03,36,7.30
2009,04,20,03,37,7.30
2009,04,20,03,38,7.30
2009,04,20,03,39,7.30
2009,04,20,03,40,7.30
2009,04,20,03,41,7.30
2009,04,20,03,42,7.30
2009,04,20,03,43,7.30
2009,04,20,03,44,7.30
2009,04,20,03,45,7.30
2009,04,20,03,46,7.40
2009,04,20,03,47,7.40
2009,04,20,03,48,7.50
2009,04,20,03,49,7.50
2009,04,20,03,50,7.60
2009,04,20,03,51,7.60
2009,04,20,03,52,7.60
2009,04,20,03,53,7.70
2009,04,20,03,54,7.70
2009,04,20,03,55,7.70
2009,04,20,03,56,7.70
2009,04,20,03,57,7.80
2009,04,20,03,58,7.80
2009,04,20,03,59,7.80
2009,04,20,04,00,7.80
2009,04,20,04,01,7.80
2009,04,20,04,02,7.80
2009,04,20,04,03,7.80
2009,04,20,04,05,7.80
2009,04,20,04,06,7.80
2009,04,20,04,07,7.80
2009,04,20,04,08,7.80
2009,04,20,04,09,7.80
2009,04,20,04,10,7.80
2009,04,20,04,11,7.90
2009,04,20,04,12,7.90
2009,04,20,04,13,7.90
2009,04,20,04,14,7.90
2009,04,20,04,15,7.90
2009,04,20,04,16,8.00
2009,04,20,04,17,8.00
2009,04,20,04,18,8.00
2009,04,20,04,19,8.10
2009,04,20,04,20,8.10
2009,04,20,04,21,8.20
2009,04,20,04,22,8.20
2009,04,20,04,23,8.20
2009,04,20,04,24,8.20
2009,04,20,04,25,8.20
2009,04,20,04,26,8.20
2009,04,20,04,27,8.20
2009,04,20,04,28,8.20
2009,04,20,04,29,8.20
2009,04,20,04,30,8.20
2009,04,20,04,31,8.30
2009,04,20,04,32,8.30
2009,04,20,04,33,8.30
2009,04,20,04,34,8.30
2009,04,20,04,35,8.30
2009,04,20,04,36,8.30
2009,04,20,04,37,8.30
2009,04,20,04,38,8.20
2009,04,20,04,39,8.20
2009,04,20,04,40,8.20
2009,04,20,04,41,8.20
2009,04,20,04,42,8.20
2009,04,20,04,43,8.10
2009,04,20,04,44,8.10
2009,04,20,04,45,8.00
2009,04,20,04,46,8.00
2009,04,20,04,47,7.90
2009,04,20,04,48,7.90
2009,04,20,04,49,7.80
2009,04,20,04,50,7.80
2009,04,20,04,51,7.80
2009,04,20,04,52,7.80
2009,04,20,04,53,7.80
2009,04,20,04,54,7.70
2009,04,20,04,55,7.70
2009,04,20,04,56,7.70
2009,04,20,04,57,7.60
2009,04,20,04,58,7.60
2009,04,20,04,59,7.60
2009,04,20,05,00,7.50
2009,04,20,05,01,7.50
2009,04,20,05,02,7.50
2009,04,20,05,03,7.40
2009,04,20,05,04,7.40
2009,04,20,05,05,7.40
2009,04,20,05,06,7.40
2009,04,20,05,07,7.30
2009,04,20,05,08,7.30
2009,04,20,05,09,7.30
2009,04,20,05,10,7.30
2009,04,20,05,11,7.30
2009,04,20,05,12,7.30
2009,04,20,05,13,7.30
2009,04,20,05,14,7.30
2009,04,20,05,15,7.30
2009,04,20,05,16,7.20
2009,04,20,05,17,7.20
2009,04,20,05,18,7.20
2009,04,20,05,19,7.20
2009,04,20,05,20,7.20
2009,04,20,05,21,7.20
2009,04,20,05,22,7.10
2009,04,20,05,23,7.10
2009,04,20,05,24,7.10
2009,04,20,05,25,7.10
2009,04,20,05,26,7.10
2009,04,20,05,27,7.10
2009,04,20,05,28,7.10
2009,04,20,05,29,7.10
2009,04,20,05,30,7.10
2009,04,20,05,31,7.10
2009,04,20,05,32,7.10
2009,04,20,05,33,7.10
2009,04,20,05,34,7.10
2009,04,20,05,35,7.10
2009,04,20,05,36,7.10
2009,04,20,05,37,7.10
2009,04,20,05,38,7.10
2009,04,20,05,39,7.00
2009,04,20,05,40,7.00
2009,04,20,05,41,7.00
2009,04,20,05,42,6.90
2009,04,20,05,43,6.90
2009,04,20,05,44,6.80
2009,04,20,05,45,6.80
2009,04,20,05,46,6.80
2009,04,20,05,47,6.80
2009,04,20,05,48,6.80
2009,04,20,05,49,6.80
2009,04,20,05,50,6.80
2009,04,20,05,51,6.80
2009,04,20,05,52,6.80
2009,04,20,05,53,6.80
2009,04,20,05,54,6.80
2009,04,20,05,55,6.80
2009,04,20,05,56,6.80
2009,04,20,05,57,6.80
2009,04,20,05,58,6.70
2009,04,20,05,59,6.70
2009,04,20,06,00,6.70
2009,04,20,06,01,6.70
2009,04,20,06,02,6.70
2009,04,20,06,03,6.60
2009,04,20,06,04,6.60
2009,04,20,06,05,6.60
2009,04,20,06,06,6.60
2009,04,20,06,07,6.60
2009,04,20,06,08,6.60
2009,04,20,06,09,6.60
2009,04,20,06,10,6.60
2009,04,20,06,11,6.60
2009,04,20,06,12,6.60
2009,04,20,06,13,6.60
2009,04,20,06,14,6.60
2009,04,20,06,15,6.60
2009,04,20,06,16,6.60
2009,04,20,06,17,6.60
2009,04,20,06,18,6.60
2009,04,20,06,19,6.60
2009,04,20,06,20,6.60
2009,04,20,06,21,6.60
2009,04,20,06,22,6.60
2009,04,20,06,23,6.60
2009,04,20,06,24,6.40
2009,04,20,06,25,6.40
2009,04,20,06,26,6.40
2009,04,20,06,27,6.40
2009,04,20,06,28,6.40
2009,04,20,06,29,6.40
2009,04,20,06,30,6.40
2009,04,20,06,31,6.40
2009,04,20,06,32,6.40
2009,04,20,06,33,6.40
2009,04,20,06,34,6.40
2009,04,20,06,35,6.40
2009,04,20,06,36,6.40
2009,04,20,06,37,6.40
2009,04,20,06,38,6.40
2009,04,20,06,39,6.40
2009,04,20,06,40,6.40
2009,04,20,06,41,6.40
2009,04,20,06,42,6.40
2009,04,20,06,43,6.40
2009,04,20,06,44,6.40
2009,04,20,06,45,6.40
2009,04,20,06,46,6.40
2009,04,20,06,47,6.40
2009,04,20,06,48,6.40
2009,04,20,06,49,6.40
2009,04,20,06,50,6.50
2009,04,20,06,51,6.60
2009,04,20,06,52,6.60
2009,04,20,06,53,6.60
2009,04,20,06,54,6.60
2009,04,20,06,55,6.60
2009,04,20,06,56,6.60
2009,04,20,06,57,6.60
2009,04,20,06,58,6.60
2009,04,20,06,59,6.60
2009,04,20,07,00,6.60
2009,04,20,07,01,6.60
2009,04,20,07,02,6.60
2009,04,20,07,03,6.60
2009,04,20,07,04,6.60
2009,04,20,07,05,6.70
2009,04,20,07,06,6.80
2009,04,20,07,07,6.80
2009,04,20,07,08,6.80
2009,04,20,07,09,6.90
2009,04,20,07,10,6.90
2009,04,20,07,11,7.00
2009,04,20,07,12,7.10
2009,04,20,07,13,7.20
2009,04,20,07,14,7.30
2009,04,20,07,15,7.30
2009,04,20,07,16,7.40
2009,04,20,07,17,7.50
2009,04,20,07,18,7.50
2009,04,20,07,19,7.60
2009,04,20,07,20,7.60
2009,04,20,07,21,7.70
2009,04,20,07,22,7.70
2009,04,20,07,23,7.80
2009,04,20,07,24,7.80
2009,04,20,07,25,7.90
2009,04,20,07,26,7.90
2009,04,20,07,27,8.00
2009,04,20,07,28,8.10
2009,04,20,07,29,8.20
2009,04,20,07,30,8.20
2009,04,20,07,31,8.30
2009,04,20,07,32,8.40
2009,04,20,07,33,8.50
2009,04,20,07,34,8.60
2009,04,20,07,35,8.70
2009,04,20,07,36,8.80
2009,04,20,07,37,8.90
2009,04,20,07,38,9.00
2009,04,20,07,39,9.10
2009,04,20,07,40,9.20
2009,04,20,07,41,9.20
2009,04,20,07,42,9.40
2009,04,20,07,43,9.50
2009,04,20,07,44,9.60
2009,04,20,07,45,9.70
2009,04,20,07,46,9.70
2009,04,20,07,47,9.80
2009,04,20,07,48,9.90
2009,04,20,07,49,10.00
2009,04,20,07,50,10.10
2009,04,20,07,51,10.30
2009,04,20,07,52,10.40
2009,04,20,07,53,10.50
2009,04,20,07,54,10.60
2009,04,20,07,55,10.70
2009,04,20,07,56,10.80
2009,04,20,07,57,10.80
2009,04,20,07,58,10.90
2009,04,20,07,59,10.90
2009,04,20,08,00,10.90
2009,04,20,08,01,10.90
2009,04,20,08,02,10.90
2009,04,20,08,03,11.00
2009,04,20,08,04,11.10
2009,04,20,08,05,11.10
2009,04,20,08,06,11.20
2009,04,20,08,07,11.30
2009,04,20,08,08,11.40
2009,04,20,08,09,11.40
2009,04,20,08,10,11.50
2009,04,20,08,11,11.60
2009,04,20,08,12,11.60
2009,04,20,08,13,11.60
2009,04,20,08,14,11.70
2009,04,20,08,15,11.70
2009,04,20,08,16,11.70
2009,04,20,08,17,11.70
2009,04,20,08,18,11.70
2009,04,20,08,19,11.70
2009,04,20,08,20,11.70
2009,04,20,08,21,11.80
2009,04,20,08,22,11.80
2009,04,20,08,23,11.80
2009,04,20,08,24,11.80
2009,04,20,08,25,11.80
2009,04,20,08,26,11.80
2009,04,20,08,27,11.80
2009,04,20,08,28,11.80
2009,04,20,08,29,11.80
2009,04,20,08,30,11.90
2009,04,20,08,31,12.00
2009,04,20,08,32,12.10
2009,04,20,08,33,12.20
2009,04,20,08,34,12.30
2009,04,20,08,35,12.30
2009,04,20,08,36,12.30
2009,04,20,08,37,12.40
2009,04,20,08,38,12.40
2009,04,20,08,39,12.50
2009,04,20,08,40,12.50
2009,04,20,08,41,12.60
2009,04,20,08,42,12.70
2009,04,20,08,43,12.80
2009,04,20,08,44,12.80
2009,04,20,08,45,12.90
2009,04,20,08,46,12.90
2009,04,20,08,47,13.00
2009,04,20,08,48,13.10
2009,04,20,08,49,13.10
2009,04,20,08,50,13.10
2009,04,20,08,51,13.20
2009,04,20,08,52,13.20
2009,04,20,08,53,13.20
2009,04,20,08,54,13.30
2009,04,20,08,55,13.30
2009,04,20,08,56,13.30
2009,04,20,08,57,13.40
2009,04,20,08,58,13.30
2009,04,20,08,59,13.30
2009,04,20,09,00,13.30
2009,04,20,09,01,13.20
2009,04,20,09,02,13.10
2009,04,20,09,03,13.10
2009,04,20,09,04,13.00
2009,04,20,09,05,13.00
2009,04,20,09,06,13.00
2009,04,20,09,07,12.90
2009,04,20,09,08,13.00
2009,04,20,09,09,13.00
2009,04,20,09,10,13.00
2009,04,20,09,11,13.10
2009,04,20,09,12,13.10
2009,04,20,09,13,13.20
2009,04,20,09,14,13.10
2009,04,20,09,15,13.10
2009,04,20,09,16,13.10
2009,04,20,09,17,13.20
2009,04,20,09,18,13.20
2009,04,20,09,19,13.20
2009,04,20,09,20,13.30
2009,04,20,09,21,13.30
2009,04,20,09,22,13.40
2009,04,20,09,23,13.50
2009,04,20,09,24,13.50
2009,04,20,09,25,13.50
2009,04,20,09,26,13.50
2009,04,20,09,27,13.50
2009,04,20,09,28,13.40
2009,04,20,09,29,13.40
2009,04,20,09,30,13.40
2009,04,20,09,31,13.30
2009,04,20,09,32,13.20
2009,04,20,09,33,13.10
2009,04,20,09,34,13.10
2009,04,20,09,35,13.00
2009,04,20,09,36,13.00
2009,04,20,09,37,13.10
2009,04,20,09,38,13.20
2009,04,20,09,39,13.10
2009,04,20,09,40,13.10
2009,04,20,09,41,13.00
2009,04,20,09,42,13.00
2009,04,20,09,43,13.00
2009,04,20,09,44,13.10
2009,04,20,09,45,13.20
2009,04,20,09,46,13.20
2009,04,20,09,47,13.30
2009,04,20,09,48,13.30
2009,04,20,09,49,13.30
2009,04,20,09,50,13.30
2009,04,20,09,51,13.30
2009,04,20,09,52,13.40
2009,04,20,09,53,13.50
2009,04,20,09,54,13.50
2009,04,20,09,55,13.40
2009,04,20,09,56,13.40
2009,04,20,09,57,13.40
2009,04,20,09,58,13.40
2009,04,20,09,59,13.30
2009,04,20,10,00,13.40
2009,04,20,10,01,13.40
2009,04,20,10,02,13.50
2009,04,20,10,03,13.50
2009,04,20,10,04,13.60
2009,04,20,10,05,13.70
2009,04,20,10,06,13.80
2009,04,20,10,07,13.90
2009,04,20,10,08,14.00
2009,04,20,10,09,14.00
2009,04,20,10,10,14.00
2009,04,20,10,11,14.00
2009,04,20,10,12,14.10
2009,04,20,10,13,14.10
2009,04,20,10,14,14.30
2009,04,20,10,15,14.40
2009,04,20,10,16,14.50
2009,04,20,10,17,14.70
2009,04,20,10,18,14.80
2009,04,20,10,19,14.80
2009,04,20,10,20,14.90
2009,04,20,10,21,15.00
2009,04,20,10,22,15.00
2009,04,20,10,23,15.00
2009,04,20,10,24,15.00
2009,04,20,10,25,15.00
2009,04,20,10,26,15.00
2009,04,20,10,27,15.00
2009,04,20,10,28,15.00
2009,04,20,10,29,15.00
2009,04,20,10,30,14.90
2009,04,20,10,31,14.90
2009,04,20,10,32,14.90
2009,04,20,10,33,14.80
2009,04,20,10,34,14.90
2009,04,20,10,35,14.90
2009,04,20,10,36,14.90
2009,04,20,10,37,14.80
2009,04,20,10,38,14.70
2009,04,20,10,39,14.50
2009,04,20,10,40,14.40
2009,04,20,10,41,14.20
2009,04,20,10,42,14.20
2009,04,20,10,43,14.10
2009,04,20,10,44,14.10
2009,04,20,10,45,14.10
2009,04,20,10,46,14.20
2009,04,20,10,47,14.20
2009,04,20,10,48,14.20
2009,04,20,10,49,14.20
2009,04,20,10,50,14.30
2009,04,20,10,51,14.30
2009,04,20,10,52,14.30
2009,04,20,10,53,14.30
2009,04,20,10,54,14.30
2009,04,20,10,55,14.30
2009,04,20,10,56,14.40
2009,04,20,10,57,14.40
2009,04,20,10,58,14.40
2009,04,20,10,59,14.40
2009,04,20,11,00,14.50
2009,04,20,11,01,14.60
2009,04,20,11,02,14.70
2009,04,20,11,03,14.70
2009,04,20,11,04,14.70
2009,04,20,11,05,14.70
2009,04,20,11,06,14.70
2009,04,20,11,07,14.80
2009,04,20,11,08,14.80
2009,04,20,11,09,14.80
2009,04,20,11,10,14.90
2009,04,20,11,11,14.90
2009,04,20,11,12,15.00
2009,04,20,11,13,15.00
2009,04,20,11,14,15.10
2009,04,20,11,15,15.20
2009,04,20,11,16,15.20
2009,04,20,11,17,15.20
2009,04,20,11,18,15.20
2009,04,20,11,19,15.20
2009,04,20,11,20,15.20
2009,04,20,11,21,15.20
2009,04,20,11,22,15.40
2009,04,20,11,23,15.50
2009,04,20,11,24,15.50
2009,04,20,11,25,15.50
2009,04,20,11,26,15.50
2009,04,20,11,27,15.40
2009,04,20,11,28,15.40
2009,04,20,11,29,15.30
2009,04,20,11,30,15.30
2009,04,20,11,31,15.30
2009,04,20,11,32,15.30
2009,04,20,11,33,15.30
2009,04,20,11,34,15.30
2009,04,20,11,35,15.30
2009,04,20,11,36,15.30
2009,04,20,11,37,15.20
2009,04,20,11,38,15.20
2009,04,20,11,39,15.10
2009,04,20,11,40,15.00
2009,04,20,11,41,15.00
2009,04,20,11,42,15.00
2009,04,20,11,43,15.00
2009,04,20,11,44,14.90
2009,04,20,11,45,14.90
2009,04,20,11,46,14.80
2009,04,20,11,47,14.80
2009,04,20,11,48,14.80
2009,04,20,11,49,14.80
2009,04,20,11,50,14.80
2009,04,20,11,51,14.70
2009,04,20,11,52,14.70
2009,04,20,11,53,14.70
2009,04,20,11,54,14.60
2009,04,20,11,55,14.60
2009,04,20,11,56,14.70
2009,04,20,11,57,14.70
2009,04,20,11,58,14.70
2009,04,20,11,59,14.80
2009,04,20,12,00,14.80
2009,04,20,12,01,14.80
2009,04,20,12,02,14.90
2009,04,20,12,03,15.00
2009,04,20,12,04,15.00
2009,04,20,12,05,15.10
2009,04,20,12,06,15.10
2009,04,20,12,07,15.10
2009,04,20,12,08,15.10
2009,04,20,12,09,15.30
2009,04,20,12,10,15.30
2009,04,20,12,11,15.40
2009,04,20,12,12,15.50
2009,04,20,12,13,15.60
2009,04,20,12,14,15.70
2009,04,20,12,15,15.70
2009,04,20,12,16,15.60
2009,04,20,12,17,15.50
2009,04,20,12,18,15.60
2009,04,20,12,19,15.70
2009,04,20,12,20,15.80
2009,04,20,12,21,15.80
2009,04,20,12,22,15.70
2009,04,20,12,23,15.70
2009,04,20,12,24,15.70
2009,04,20,12,25,15.70
2009,04,20,12,26,15.80
2009,04,20,12,27,15.80
2009,04,20,12,28,15.80
2009,04,20,12,29,15.80
2009,04,20,12,30,15.80
2009,04,20,12,31,15.70
2009,04,20,12,32,15.70
2009,04,20,12,33,15.70
2009,04,20,12,34,15.70
2009,04,20,12,35,15.80
2009,04,20,12,36,15.90
2009,04,20,12,37,16.00
2009,04,20,12,38,16.10
2009,04,20,12,39,16.20
2009,04,20,12,40,16.30
2009,04,20,12,41,16.40
2009,04,20,12,42,16.40
2009,04,20,12,43,16.40
2009,04,20,12,44,16.40
2009,04,20,12,45,16.40
2009,04,20,12,46,16.40
2009,04,20,12,47,16.40
2009,04,20,12,48,16.40
2009,04,20,12,49,16.30
2009,04,20,12,50,16.30
2009,04,20,12,51,16.40
2009,04,20,12,52,16.40
2009,04,20,12,53,16.40
2009,04,20,12,54,16.40
2009,04,20,12,55,16.40
2009,04,20,12,56,16.40
2009,04,20,12,57,16.40
2009,04,20,12,58,16.40
2009,04,20,12,59,16.40
2009,04,20,13,00,16.40
2009,04,20,13,01,16.60
2009,04,20,13,02,16.70
2009,04,20,13,03,16.70
2009,04,20,13,04,16.60
2009,04,20,13,05,16.60
2009,04,20,13,06,16.40
2009,04,20,13,07,16.40
2009,04,20,13,08,16.50
2009,04,20,13,09,16.60
2009,04,20,13,10,16.80
2009,04,20,13,11,16.90
2009,04,20,13,12,17.00
2009,04,20,13,13,17.10
2009,04,20,13,14,17.10
2009,04,20,13,15,17.00
2009,04,20,13,16,17.00
2009,04,20,13,17,16.90
2009,04,20,13,18,16.80
2009,04,20,13,19,16.80
2009,04,20,13,20,16.80
2009,04,20,13,21,16.80
2009,04,20,13,22,16.80
2009,04,20,13,23,16.80
2009,04,20,13,24,16.80
2009,04,20,13,25,16.90
2009,04,20,13,26,16.90
2009,04,20,13,27,16.80
2009,04,20,13,28,16.70
2009,04,20,13,29,16.70
2009,04,20,13,30,16.80
2009,04,20,13,31,16.90
2009,04,20,13,32,17.00
2009,04,20,13,33,17.10
2009,04,20,13,34,17.30
2009,04,20,13,35,17.20
2009,04,20,13,36,17.20
2009,04,20,13,37,17.20
2009,04,20,13,38,17.20
2009,04,20,13,39,17.20
2009,04,20,13,40,17.20
2009,04,20,13,41,17.20
2009,04,20,13,42,17.20
2009,04,20,13,43,17.30
2009,04,20,13,44,17.40
2009,04,20,13,45,17.50
2009,04,20,13,46,17.60
2009,04,20,13,47,17.60
2009,04,20,13,48,17.60
2009,04,20,13,49,17.70
2009,04,20,13,50,17.80
2009,04,20,13,51,17.90
2009,04,20,13,52,17.90
2009,04,20,13,53,17.80
2009,04,20,13,54,17.80
2009,04,20,13,55,17.70
2009,04,20,13,56,17.70
2009,04,20,13,57,17.80
2009,04,20,13,58,17.80
2009,04,20,13,59,17.80
2009,04,20,14,00,17.80
2009,04,20,14,01,17.60
2009,04,20,14,02,17.50
2009,04,20,14,03,17.50
2009,04,20,14,04,17.50
2009,04,20,14,05,17.50
2009,04,20,14,06,17.60
2009,04,20,14,07,17.60
2009,04,20,14,08,17.60
2009,04,20,14,09,17.60
2009,04,20,14,10,17.60
2009,04,20,14,11,17.70
2009,04,20,14,12,17.80
2009,04,20,14,13,17.80
2009,04,20,14,14,17.70
2009,04,20,14,15,17.60
2009,04,20,14,16,17.40
2009,04,20,14,17,17.30
2009,04,20,14,18,17.30
2009,04,20,14,19,17.20
2009,04,20,14,20,17.10
2009,04,20,14,21,17.10
2009,04,20,14,22,17.10
2009,04,20,14,23,17.10
2009,04,20,14,24,17.20
2009,04,20,14,25,17.40
2009,04,20,14,26,17.60
2009,04,20,14,27,17.80
2009,04,20,14,28,17.90
2009,04,20,14,29,17.90
2009,04,20,14,30,17.90
2009,04,20,14,31,17.90
2009,04,20,14,32,17.90
2009,04,20,14,33,17.90
2009,04,20,14,34,17.90
2009,04,20,14,35,17.90
2009,04,20,14,36,17.90
2009,04,20,14,37,17.80
2009,04,20,14,38,17.80
2009,04,20,14,39,17.70
2009,04,20,14,40,17.70
2009,04,20,14,41,17.70
2009,04,20,14,42,17.60
2009,04,20,14,43,17.60
2009,04,20,14,44,17.70
2009,04,20,14,45,17.80
2009,04,20,14,46,17.80
2009,04,20,14,47,17.90
2009,04,20,14,48,17.90
2009,04,20,14,49,18.00
2009,04,20,14,50,18.10
2009,04,20,14,51,18.20
2009,04,20,14,52,18.20
2009,04,20,14,53,18.20
2009,04,20,14,54,18.20
2009,04,20,14,55,18.20
2009,04,20,14,56,18.20
2009,04,20,14,57,18.10
2009,04,20,14,58,17.90
2009,04,20,14,59,17.90
2009,04,20,15,00,17.90
2009,04,20,15,01,17.90
2009,04,20,15,02,17.90
2009,04,20,15,03,17.80
2009,04,20,15,04,17.70
2009,04,20,15,05,17.60
2009,04,20,15,06,17.60
2009,04,20,15,07,17.60
2009,04,20,15,08,17.60
2009,04,20,15,09,17.60
2009,04,20,15,10,17.60
2009,04,20,15,11,17.70
2009,04,20,15,12,17.70
2009,04,20,15,13,17.70
2009,04,20,15,14,17.60
2009,04,20,15,15,17.60
2009,04,20,15,16,17.70
2009,04,20,15,17,17.80
2009,04,20,15,18,17.90
2009,04,20,15,19,18.00
2009,04,20,15,20,18.20
2009,04,20,15,21,18.30
2009,04,20,15,22,18.20
2009,04,20,15,23,18.20
2009,04,20,15,24,18.20
2009,04,20,15,25,18.30
2009,04,20,15,26,18.30
2009,04,20,15,27,18.40
2009,04,20,15,28,18.50
2009,04,20,15,29,18.60
2009,04,20,15,30,18.60
2009,04,20,15,31,18.60
2009,04,20,15,32,18.60
2009,04,20,15,33,18.50
2009,04,20,15,34,18.40
2009,04,20,15,35,18.30
2009,04,20,15,36,18.20
2009,04,20,15,37,18.20
2009,04,20,15,38,18.30
2009,04,20,15,39,18.40
2009,04,20,15,40,18.50
2009,04,20,15,41,18.60
2009,04,20,15,42,18.60
2009,04,20,15,43,18.70
2009,04,20,15,44,18.60
2009,04,20,15,45,18.60
2009,04,20,15,46,18.50
2009,04,20,15,47,18.40
2009,04,20,15,48,18.30
2009,04,20,15,49,18.30
2009,04,20,15,50,18.30
2009,04,20,15,51,18.30
2009,04,20,15,52,18.30
2009,04,20,15,53,18.30
2009,04,20,15,54,18.20
2009,04,20,15,55,18.20
2009,04,20,15,56,18.20
2009,04,20,15,57,18.20
2009,04,20,15,58,18.30
2009,04,20,15,59,18.30
2009,04,20,16,00,18.30
2009,04,20,16,01,18.30
2009,04,20,16,02,18.20
2009,04,20,16,03,18.20
2009,04,20,16,04,18.30
2009,04,20,16,05,18.30
2009,04,20,16,06,18.30
2009,04,20,16,07,18.40
2009,04,20,16,08,18.40
2009,04,20,16,09,18.40
2009,04,20,16,10,18.50
2009,04,20,16,11,18.50
2009,04,20,16,12,18.50
2009,04,20,16,13,18.40
2009,04,20,16,14,18.40
2009,04,20,16,15,18.40
2009,04,20,16,16,18.40
2009,04,20,16,17,18.40
2009,04,20,16,18,18.50
2009,04,20,16,19,18.50
2009,04,20,16,20,18.40
2009,04,20,16,21,18.40
2009,04,20,16,22,18.40
2009,04,20,16,23,18.40
2009,04,20,16,24,18.40
2009,04,20,16,25,18.40
2009,04,20,16,26,18.40
2009,04,20,16,27,18.40
2009,04,20,16,28,18.40
2009,04,20,16,29,18.30
2009,04,20,16,30,18.30
2009,04,20,16,31,18.30
2009,04,20,16,32,18.30
2009,04,20,16,33,18.30
2009,04,20,16,34,18.40
2009,04,20,16,35,18.40
2009,04,20,16,36,18.40
2009,04,20,16,37,18.50
2009,04,20,16,38,18.50
2009,04,20,16,39,18.60
2009,04,20,16,40,18.60
2009,04,20,16,41,18.60
2009,04,20,16,42,18.50
2009,04,20,16,43,18.40
2009,04,20,16,44,18.40
2009,04,20,16,45,18.40
2009,04,20,16,46,18.40
2009,04,20,16,47,18.40
2009,04,20,16,48,18.40
2009,04,20,16,49,18.30
2009,04,20,16,50,18.30
2009,04,20,16,51,18.30
2009,04,20,16,52,18.30
2009,04,20,16,53,18.30
2009,04,20,16,54,18.30
2009,04,20,16,55,18.30
2009,04,20,16,56,18.40
2009,04,20,16,57,18.50
2009,04,20,16,58,18.60
2009,04,20,16,59,18.80
2009,04,20,17,00,18.90
2009,04,20,17,01,18.90
2009,04,20,17,02,19.00
2009,04,20,17,03,19.10
2009,04,20,17,04,19.10
2009,04,20,17,05,18.90
2009,04,20,17,06,18.90
2009,04,20,17,07,18.90
2009,04,20,17,08,18.80
2009,04,20,17,09,18.80
2009,04,20,17,10,18.70
2009,04,20,17,11,18.70
2009,04,20,17,12,18.70
2009,04,20,17,13,18.60
2009,04,20,17,14,18.50
2009,04,20,17,15,18.40
2009,04,20,17,16,18.30
2009,04,20,17,17,18.20
2009,04,20,17,18,18.20
2009,04,20,17,19,18.30
2009,04,20,17,20,18.30
2009,04,20,17,21,18.30
2009,04,20,17,22,18.40
2009,04,20,17,23,18.40
2009,04,20,17,24,18.40
2009,04,20,17,25,18.40
2009,04,20,17,26,18.40
2009,04,20,17,27,18.50
2009,04,20,17,28,18.60
2009,04,20,17,29,18.60
2009,04,20,17,30,18.50
2009,04,20,17,31,18.50
2009,04,20,17,32,18.40
2009,04,20,17,33,18.40
2009,04,20,17,34,18.40
2009,04,20,17,35,18.50
2009,04,20,17,36,18.50
2009,04,20,17,37,18.50
2009,04,20,17,38,18.50
2009,04,20,17,39,18.50
2009,04,20,17,40,18.50